Time,TemperatureF,DewpointF,PressureIn,WindDirection,WindDirectionDegrees,WindSpeedMPH,WindSpeedGustMPH,Humidity,HourlyPrecipIn,Conditions,Clouds,dailyrainin,SolarRadiationWatts/m^2,SoftwareType,DateUTC
2013-03-24 00:02:00,50.6,49.0,29.68,NNE,21,2.0,4.0,95,0.04,,,0.00,0,weatherlink.com 1.10,2013-03-24 05:02:00,
2013-03-24 00:17:00,50.4,49.0,29.63,East,98,1.0,9.0,95,0.04,,,0.01,0,weatherlink.com 1.10,2013-03-24 05:17:00,
2013-03-24 00:32:00,50.4,49.0,29.66,NW,322,0.0,3.0,95,0.03,,,0.01,0,weatherlink.com 1.10,2013-03-24 05:32:00,
2013-03-24 00:47:00,50.3,49.0,29.64,ENE,68,0.0,7.0,95,0.01,,,0.01,0,weatherlink.com 1.10,2013-03-24 05:47:00,
2013-03-24 01:02:00,50.2,49.0,29.65,ENE,67,0.0,5.0,96,0.01,,,0.01,0,weatherlink.com 1.10,2013-03-24 06:02:00,
2013-03-24 01:17:00,50.2,49.0,29.64,ENE,64,2.0,5.0,96,0.00,,,0.01,0,weatherlink.com 1.10,2013-03-24 06:17:00,
2013-03-24 01:32:00,50.2,49.0,29.63,ENE,60,0.0,4.0,96,0.00,,,0.01,0,weatherlink.com 1.10,2013-03-24 06:32:00,
2013-03-24 01:47:00,50.3,49.0,29.62,East,84,0.0,5.0,96,0.00,,,0.01,0,weatherlink.com 1.10,2013-03-24 06:47:00,
2013-03-24 02:02:00,50.3,49.0,29.61,East,95,2.0,3.0,96,0.00,,,0.01,0,weatherlink.com 1.10,2013-03-24 07:02:00,
2013-03-24 02:17:00,50.3,49.0,29.62,ENE,76,1.0,4.0,96,0.00,,,0.01,0,weatherlink.com 1.10,2013-03-24 07:17:00,
2013-03-24 02:32:00,50.3,49.0,29.62,ENE,76,0.0,0.0,96,0.00,,,0.01,0,weatherlink.com 1.10,2013-03-24 07:32:00,
2013-03-24 02:47:00,50.4,49.0,29.62,ENE,73,1.0,3.0,96,0.00,,,0.01,0,weatherlink.com 1.10,2013-03-24 07:47:00,
2013-03-24 03:02:00,50.4,49.0,29.62,NW,321,3.0,4.0,96,0.00,,,0.01,0,weatherlink.com 1.10,2013-03-24 08:02:00,
2013-03-24 03:17:00,50.3,49.0,29.61,East,83,1.0,2.0,96,0.00,,,0.01,0,weatherlink.com 1.10,2013-03-24 08:17:00,
2013-03-24 03:33:00,50.2,49.0,29.59,ENE,62,1.0,2.0,96,0.00,,,0.01,0,weatherlink.com 1.10,2013-03-24 08:33:00,
2013-03-24 03:48:00,50.2,49.0,29.59,ENE,62,0.0,3.0,96,0.00,,,0.01,0,weatherlink.com 1.10,2013-03-24 08:48:00,
2013-03-24 04:03:00,50.2,49.0,29.60,NW,318,4.0,4.0,96,0.00,,,0.01,0,weatherlink.com 1.10,2013-03-24 09:03:00,
2013-03-24 04:18:00,50.1,49.0,29.61,WNW,303,2.0,5.0,96,0.00,,,0.01,0,weatherlink.com 1.10,2013-03-24 09:18:00,
2013-03-24 04:33:00,50.0,49.0,29.62,NW,320,4.0,6.0,96,0.00,,,0.01,0,weatherlink.com 1.10,2013-03-24 09:33:00,
2013-03-24 04:48:00,49.7,49.0,29.62,West,279,2.0,7.0,96,0.00,,,0.01,0,weatherlink.com 1.10,2013-03-24 09:48:00,
2013-03-24 05:03:00,49.5,48.0,29.64,WNW,291,4.0,6.0,96,0.00,,,0.01,0,weatherlink.com 1.10,2013-03-24 10:03:00,
2013-03-24 05:18:00,49.4,48.0,29.64,WNW,291,4.0,6.0,96,0.00,,,0.01,0,weatherlink.com 1.10,2013-03-24 10:18:00,
2013-03-24 05:33:00,49.3,48.0,29.63,WNW,299,0.0,4.0,96,0.00,,,0.01,0,weatherlink.com 1.10,2013-03-24 10:33:00,
2013-03-24 05:48:00,49.2,48.0,29.65,NW,305,3.0,6.0,96,0.00,,,0.01,0,weatherlink.com 1.10,2013-03-24 10:48:00,
2013-03-24 06:03:00,48.9,48.0,29.64,NW,326,2.0,7.0,96,0.00,,,0.01,0,weatherlink.com 1.10,2013-03-24 11:03:00,
2013-03-24 06:18:00,48.6,48.0,29.63,NNW,328,0.0,6.0,96,0.00,,,0.01,0,weatherlink.com 1.10,2013-03-24 11:18:00,
2013-03-24 06:33:00,48.5,48.0,29.61,NW,317,1.0,4.0,96,0.00,,,0.01,0,weatherlink.com 1.10,2013-03-24 11:33:00,
2013-03-24 06:48:00,48.4,47.0,29.63,WNW,286,3.0,5.0,96,0.00,,,0.01,0,weatherlink.com 1.10,2013-03-24 11:48:00,
2013-03-24 07:03:00,48.2,47.0,29.61,NE,54,0.0,3.0,96,0.00,,,0.01,0,weatherlink.com 1.10,2013-03-24 12:03:00,
2013-03-24 07:18:00,48.1,47.0,29.59,SSE,147,3.0,4.0,96,0.00,,,0.01,18,weatherlink.com 1.10,2013-03-24 12:18:00,
2013-03-24 07:33:00,48.2,47.0,29.57,South,177,3.0,7.0,96,0.00,,,0.01,11,weatherlink.com 1.10,2013-03-24 12:33:00,
2013-03-24 07:50:00,48.5,48.0,29.60,SSW,212,4.0,7.0,96,0.00,,,0.01,18,weatherlink.com 1.10,2013-03-24 12:50:00,
2013-03-24 08:05:00,48.7,48.0,29.60,South,190,1.0,8.0,97,0.00,,,0.01,26,weatherlink.com 1.10,2013-03-24 13:05:00,
2013-03-24 08:20:00,48.9,48.0,29.60,SW,223,3.0,9.0,97,0.00,,,0.01,18,weatherlink.com 1.10,2013-03-24 13:20:00,
2013-03-24 08:34:00,48.9,48.0,29.60,SW,227,5.0,7.0,96,0.00,,,0.01,21,weatherlink.com 1.10,2013-03-24 13:34:00,
2013-03-24 08:50:00,48.8,48.0,29.58,SSW,200,4.0,7.0,97,0.00,,,0.01,35,weatherlink.com 1.10,2013-03-24 13:50:00,
2013-03-24 09:05:00,49.0,48.0,29.59,SW,228,7.0,11.0,96,0.00,,,0.01,23,weatherlink.com 1.10,2013-03-24 14:05:00,
2013-03-24 09:22:00,48.8,48.0,29.59,WSW,245,3.0,8.0,96,0.00,,,0.01,14,weatherlink.com 1.10,2013-03-24 14:22:00,
2013-03-24 09:36:00,48.3,47.0,29.60,WSW,252,11.0,15.0,96,0.00,,,0.01,16,weatherlink.com 1.10,2013-03-24 14:36:00,
2013-03-24 09:50:00,47.4,46.0,29.61,WSW,246,7.0,18.0,96,0.01,,,0.02,16,weatherlink.com 1.10,2013-03-24 14:50:00,
2013-03-24 10:07:00,46.4,45.0,29.62,SW,225,7.0,17.0,96,0.01,,,0.02,23,weatherlink.com 1.10,2013-03-24 15:07:00,
2013-03-24 10:22:00,45.9,45.0,29.62,WNW,288,13.0,17.0,95,0.01,,,0.02,51,weatherlink.com 1.10,2013-03-24 15:22:00,
2013-03-24 10:36:00,45.8,45.0,29.63,West,272,4.0,13.0,95,0.01,,,0.02,77,weatherlink.com 1.10,2013-03-24 15:36:00,
2013-03-24 10:51:00,45.8,45.0,29.62,West,263,10.0,11.0,95,0.00,,,0.02,104,weatherlink.com 1.10,2013-03-24 15:51:00,
2013-03-24 11:08:00,45.7,44.0,29.63,WSW,250,2.0,11.0,94,0.00,,,0.02,44,weatherlink.com 1.10,2013-03-24 16:08:00,
2013-03-24 11:23:00,45.9,44.0,29.62,West,279,7.0,15.0,94,0.00,,,0.02,153,weatherlink.com 1.10,2013-03-24 16:23:00,
2013-03-24 11:38:00,46.6,45.0,29.63,WNW,284,8.0,14.0,93,0.00,,,0.02,188,weatherlink.com 1.10,2013-03-24 16:38:00,
2013-03-24 11:53:00,47.4,44.0,29.63,SW,235,5.0,24.0,89,0.00,,,0.02,874,weatherlink.com 1.10,2013-03-24 16:53:00,
2013-03-24 12:08:00,48.8,43.0,29.63,WNW,297,16.0,22.0,81,0.00,,,0.02,283,weatherlink.com 1.10,2013-03-24 17:08:00,
2013-03-24 12:23:00,47.1,40.0,29.63,West,274,13.0,28.0,77,0.00,,,0.02,327,weatherlink.com 1.10,2013-03-24 17:23:00,
2013-03-24 12:40:00,46.5,39.0,29.64,West,264,6.0,25.0,75,0.00,,,0.02,327,weatherlink.com 1.10,2013-03-24 17:40:00,
2013-03-24 12:54:00,44.5,36.0,29.66,WSW,253,15.0,23.0,72,0.00,,,0.02,128,weatherlink.com 1.10,2013-03-24 17:54:00,
2013-03-24 13:10:00,43.3,36.0,29.67,WNW,284,14.0,20.0,75,0.00,,,0.02,178,weatherlink.com 1.10,2013-03-24 18:10:00,
2013-03-24 13:24:00,43.0,35.0,29.67,WSW,240,14.0,21.0,73,0.00,,,0.02,118,weatherlink.com 1.10,2013-03-24 18:24:00,
2013-03-24 13:40:00,42.8,34.0,29.68,West,270,10.0,28.0,72,0.00,,,0.02,141,weatherlink.com 1.10,2013-03-24 18:40:00,
2013-03-24 13:55:00,42.5,35.0,29.68,SW,215,7.0,17.0,74,0.00,,,0.02,70,weatherlink.com 1.10,2013-03-24 18:55:00,
2013-03-24 14:10:00,42.4,35.0,29.69,WNW,298,8.0,21.0,74,0.00,,,0.02,111,weatherlink.com 1.10,2013-03-24 19:10:00,
2013-03-24 14:25:00,42.5,34.0,29.68,NW,318,19.0,23.0,72,0.00,,,0.02,135,weatherlink.com 1.10,2013-03-24 19:25:00,
2013-03-24 14:41:00,42.6,34.0,29.69,SW,234,8.0,23.0,72,0.00,,,0.02,118,weatherlink.com 1.10,2013-03-24 19:41:00,
2013-03-24 14:56:00,42.5,35.0,29.70,WNW,286,6.0,15.0,75,0.00,,,0.02,95,weatherlink.com 1.10,2013-03-24 19:56:00,
2013-03-24 15:26:00,41.7,33.0,29.70,WSW,247,7.0,24.0,72,0.00,,,0.02,69,weatherlink.com 1.10,2013-03-24 20:26:00,
2013-03-24 15:41:00,41.4,33.0,29.71,WSW,238,13.0,20.0,73,0.00,,,0.02,76,weatherlink.com 1.10,2013-03-24 20:41:00,
2013-03-24 15:56:00,41.4,33.0,29.72,West,279,10.0,19.0,73,0.00,,,0.02,49,weatherlink.com 1.10,2013-03-24 20:56:00,
2013-03-24 16:11:00,41.0,34.0,29.73,West,271,7.0,18.0,75,0.00,,,0.02,37,weatherlink.com 1.10,2013-03-24 21:11:00,
2013-03-24 16:28:00,41.0,34.0,29.74,West,275,8.0,15.0,75,0.00,,,0.02,32,weatherlink.com 1.10,2013-03-24 21:28:00,
2013-03-24 16:43:00,41.1,33.0,29.75,West,270,10.0,22.0,73,0.00,,,0.02,23,weatherlink.com 1.10,2013-03-24 21:43:00,
2013-03-24 16:58:00,41.3,32.0,29.76,West,278,19.0,21.0,69,0.00,,,0.02,37,weatherlink.com 1.10,2013-03-24 21:58:00,
2013-03-24 17:13:00,41.1,31.0,29.77,WNW,289,11.0,26.0,68,0.01,,,0.03,86,weatherlink.com 1.10,2013-03-24 22:13:00,
2013-03-24 17:28:00,41.2,31.0,29.79,NW,320,20.0,23.0,67,0.01,,,0.03,37,weatherlink.com 1.10,2013-03-24 22:28:00,
2013-03-24 17:43:00,41.0,30.0,29.79,WNW,289,22.0,25.0,66,0.01,,,0.03,25,weatherlink.com 1.10,2013-03-24 22:43:00,
2013-03-24 18:00:00,40.9,31.0,29.80,WNW,284,7.0,17.0,67,0.00,,,0.03,18,weatherlink.com 1.10,2013-03-24 23:00:00,
2013-03-24 18:15:00,40.9,31.0,29.81,NW,313,6.0,19.0,68,0.00,,,0.03,21,weatherlink.com 1.10,2013-03-24 23:15:00,
2013-03-24 18:30:00,40.5,31.0,29.82,WNW,284,7.0,20.0,68,0.00,,,0.03,12,weatherlink.com 1.10,2013-03-24 23:30:00,
2013-03-24 18:45:00,40.2,30.0,29.84,NW,307,8.0,20.0,67,0.00,,,0.03,5,weatherlink.com 1.10,2013-03-24 23:45:00,
2013-03-24 19:00:00,39.9,29.0,29.84,WNW,289,9.0,34.0,66,0.00,,,0.03,0,weatherlink.com 1.10,2013-03-25 00:00:00,
2013-03-24 19:15:00,39.7,29.0,29.86,West,262,14.0,16.0,67,0.00,,,0.03,0,weatherlink.com 1.10,2013-03-25 00:15:00,
2013-03-24 19:30:00,39.6,29.0,29.87,WNW,299,16.0,21.0,67,0.00,,,0.03,0,weatherlink.com 1.10,2013-03-25 00:30:00,
2013-03-24 19:45:00,39.2,28.0,29.88,NW,307,25.0,25.0,65,0.00,,,0.03,0,weatherlink.com 1.10,2013-03-25 00:45:00,
2013-03-24 20:00:00,38.9,28.0,29.88,NW,322,9.0,21.0,64,0.00,,,0.03,0,weatherlink.com 1.10,2013-03-25 01:00:00,
2013-03-24 20:31:00,38.6,28.0,29.90,WNW,288,16.0,18.0,66,0.00,,,0.03,0,weatherlink.com 1.10,2013-03-25 01:31:00,
2013-03-24 20:46:00,38.4,27.0,29.90,West,275,11.0,24.0,65,0.00,,,0.03,0,weatherlink.com 1.10,2013-03-25 01:46:00,
2013-03-24 21:01:00,38.3,27.0,29.91,West,268,13.0,25.0,64,0.00,,,0.03,0,weatherlink.com 1.10,2013-03-25 02:01:00,
2013-03-24 21:17:00,38.2,27.0,29.93,WNW,289,18.0,24.0,65,0.00,,,0.03,0,weatherlink.com 1.10,2013-03-25 02:17:00,
2013-03-24 21:32:00,38.0,27.0,29.93,NW,318,13.0,21.0,65,0.00,,,0.03,0,weatherlink.com 1.10,2013-03-25 02:32:00,
2013-03-24 21:48:00,37.9,27.0,29.93,West,280,11.0,19.0,65,0.00,,,0.03,0,weatherlink.com 1.10,2013-03-25 02:48:00,
2013-03-24 22:03:00,37.8,27.0,29.94,NNW,339,13.0,22.0,65,0.00,,,0.03,0,weatherlink.com 1.10,2013-03-25 03:03:00,
2013-03-24 22:17:00,37.7,27.0,29.94,NW,311,11.0,21.0,66,0.00,,,0.03,0,weatherlink.com 1.10,2013-03-25 03:17:00,
2013-03-24 23:03:00,36.9,26.0,29.96,NW,316,7.0,23.0,66,0.00,,,0.03,0,weatherlink.com 1.10,2013-03-25 04:03:00,
2013-03-24 23:20:00,36.6,27.0,29.96,NW,305,9.0,16.0,67,0.00,,,0.03,0,weatherlink.com 1.10,2013-03-25 04:20:00,
2013-03-24 23:33:00,36.4,27.0,29.97,NW,319,8.0,16.0,69,0.00,,,0.03,0,weatherlink.com 1.10,2013-03-25 04:33:00,
2013-03-24 23:48:00,36.4,27.0,29.97,West,279,9.0,19.0,70,0.00,,,0.03,0,weatherlink.com 1.10,2013-03-25 04:48:00,